Weather in Vityazevo

Russia / Krasnodar Krai     45°00′08″N   37°17′01″E
В апреле 2022 года жителям России запретили посещать сайт meteo.paraplan.net по решению Генеральной прокуратуры. Аудитория сайта уменьшилась в 10 раз. Владельцы сайта не видят смысла в поддержке погодного сервера в таких условиях. Сайт будет закрыт в октябре.
temp.,
°C
wind,
m/s
gust,
m/s
humid.,
%
clouds,
%
prec.,
mm/h
press.,
hPa
HPBL,
m
25 september, sun
sun2500:00+15wnw910580 0.2 10191005
03:00+15wnw78595 0.1 1020941
06:00+15wnw68555 0.0 1020973
09:00+16w56525 0.0 10221387
12:00+18w795015 0.0 10221921
15:00+18wsw67505 0.1 10211626
18:00+18ssw45515 0.0 1021727
21:00+17ssw455410 0.0 1021765
26 september, mon
mon2600:00+17sw56595 0.0 1020840
03:00+17ssw56615 0.0 1020807
06:00+17s45665 0.0 1019777
09:00+19s5561100 0.0 10191165
12:00+20s566047 0.0 10181166
15:00+21ssw56615 0.0 10171136
18:00+20s5667100 0.0 1016576
21:00+19sse45725 0.0 1016350
27 september, tue
tue2700:00+17se337491 0.0 1014193
03:00+17se4478100 0.0 1012266
06:00+17sse4572100 0.0 1011297
09:00+19se4763100 0.0 1010377
12:00+23s695283 0.0 1009566
15:00+23sse6854100 0.0 1007479
18:00+21sse5876100 0.0 1007245
21:00+20se4678100 0.0 1006201
28 september, wed
wed2800:00+20sse5872100 0.0 1005258
03:00+21s7981100 0.0 1005406
06:00+21sw4682100 0.0 1005270
09:00+21sw6873100 0.0 1006530
12:00+22ssw7973100 0.0 1006852
15:00+22sw81274100 0.4 1007889
18:00+19sw91183100 0.8 1008546
21:00+20ssw6883100 1.3 1009496
29 september, thu
thu2900:00+20ssw810765 0.2 1010666
03:00+20ssw79785 0.2 1010552
06:00+20sw68783 0.8 1010493
09:00+21ssw56720 1.0 1011576
12:00+22ssw5669100 0.0 1012686
15:00+22ssw4571100 0.0 1012544
18:00+21s23783 0.0 1013112
21:00+20sse22820 0.0 101466